Find Local Weather

World > North America > United States > Wisconsin

Eagle River, Wisconsin Regional Weather

Lat: 45.91N, Lon: 89.25W
Wx Zone: WIZ005
Warning FLW WEATHER ALERT - (More Info. Click Here) Warning
Feedback

Eagle River, WI Regional Weather

Expires:201902231400;;385502
ASUS43 KMKX 231320
RWRWI 

WISCONSIN REGIONAL WEATHER ROUNDUP
NATIONAL WEATHER SERVICE MILWAUKEE/SULLIVAN WI
700 AM CST SAT FEB 23 2019

NOTE: "FAIR" INDICATES FEW OR NO CLOUDS BELOW 12,000 FEET WITH NO
SIGNIFICANT WEATHER AND/OR OBSTRUCTIONS TO VISIBILITY.


WIZ003>005-009-010-017-018-231400-
NORTH CENTRAL WISCONSIN
  
CITY           SKY/WX    TMP DP  RH WIND       PRES   REMARKS
MANITOWISH WTR NOT AVBL                                               
ARBOR VITAE    LGT SNOW  27  25  93 SE10G16   30.06F VSB 1   WCI  17  
WOODRUFF       LGT SNOW  27  25  93 SE10G16   30.06F VSB 1   WCI  17  
RHINELANDER    LGT SNOW  26  21  81 SE16G23   30.09F WCI  14          
EAGLE RIVER    SNOW      25  23  92 SE8       30.09F VSB 1/2 WCI  16  
LAND O LAKES   SNOW      26  24  92 SE10      30.09F VSB 1/2 WCI  15  
PHILLIPS       CLOUDY    26  23  91 E9G17     30.04F WCI  16          
TOMAHAWK       LGT SNOW  24  22  89 SE6       30.08F VSB 1   WCI  17  
MEDFORD        SNOW      23  21  92 E10G17    30.03F VSB 1/2 WCI  13  
MERRILL        SNOW      25  23  91 SE12      30.10F VSB 1/2 WCI  14  
$$
 

SKY/WX - Weather  TMP - Temperature  DP - Dew Point  RH - Relative Humidity
WIND - Wind Direction/Speed PRES - Barometric Pressure VSB - Visibility
WCI - Wind Chill Index E13G22 Wind - East Wind 13 mph/Gusts of 22 mph